Regional Weather Roundup
Issued by NWS Cleveland, OH

Home | Current Version | Previous Version | Graphics & Text | Print | Product List | Glossary On
Versions: 1 2 3 4 5 6 7 8 9 10 11 12 13 14 15 16 17 18 19 20 21 22 23 24 25 26 27 28 29 30 31 32 33 34 35 36 37 38 39 40 41 42 43 44 45 46 47 48 49 50
000
ASUS41 KCLE 020110
RWRCLE
OHIO REGIONAL WEATHER ROUNDUP
NATIONAL WEATHER SERVICE WILMINGTON, OH
900 PM EDT WED JUL 01 2015

NOTE: "FAIR" INDICATES FEW OR NO CLOUDS BELOW 12,000 FEET WITH NO
SIGNIFICANT WEATHER AND/OR OBSTRUCTIONS TO VISIBILITY.

OHZ001>008-015>018-024>027-034-035-043-044-020200-
   NORTHWEST OHIO

CITY           SKY/WX    TMP DP  RH WIND       PRES   REMARKS
DEFIANCE       PTCLDY    69  57  65 NW3       29.93R
FINDLAY        PTCLDY    71  57  61 NW3       29.91R
TOLEDO EXPRESS MOCLDY    69  55  60 N5        29.92R
TOLEDO EXEC    MOCLDY    70  57  63 NE5       29.93R
LIMA           PTCLDY    67  61  81 NW3       29.92R
$$

OHZ009>014-019>023-028>033-038-089-020200-
   NORTHEAST OHIO

CITY           SKY/WX    TMP DP  RH WIND       PRES   REMARKS
CLE-HOPKINS    MOCLDY    68  60  75 N5        29.93R
CLE-LAKEFRONT  PTCLDY    68  58  70 W3        29.90S
CUY CO. ARPT   PTCLDY    66  59  77 NW9       29.93R
LORAIN-ELYRIA  MOCLDY    68  61  78 CALM      29.92R
ASHTABULA      PTCLDY    64  59  83 CALM      29.93R
AKRON-CANTON   PTCLDY    67  57  70 NW5       29.92R
WOOSTER        CLEAR     65  59  81 NW3       29.93R
MANSFIELD      CLEAR     66  57  72 CALM      29.93S
YOUNGSTOWN     MOCLDY    68  57  68 N5        29.92R
$$

OHZ042-051>053-060>062-070>072-077>081-020200-
  SOUTHWEST OHIO

CITY           SKY/WX    TMP DP  RH WIND       PRES   REMARKS
CINC-COVINGTON CLOUDY    73  64  73 CALM      29.92R
CINC-LUNKEN    MOCLDY    70  67  90 CALM      29.91R
HAMILTON       PTCLDY    70  66  87 CALM      29.93R
DAYTON         MOCLDY    74  62  66 N3        29.94R
WRIGHT-PAT AFB PTCLDY    74  58  57 N2        29.92R
DAYTON GENERAL PTCLDY    75  60  59 W3        29.92R
WILMINGTON     PTCLDY    70  61  73 CALM      29.92R
$$

OHZ036-037-039>041-045>050-054>059-063>069-073>076-082>088-020200-
  CENTRAL AND SOUTHEAST OHIO

CITY           SKY/WX    TMP DP  RH WIND       PRES   REMARKS
COLUMBUS       MOCLDY    72  57  59 NW6       29.91R
OSU AIRPORT    CLEAR     71  57  61 N5        29.92R
BOLTON FIELD   CLEAR     69  64  84 CALM      29.92S
RICKENBACK AFB CLEAR     72  59  62 CALM      29.91R
NEWARK         CLEAR     70  60  70 CALM      29.92R
MARION         CLEAR     70  58  65 CALM      29.92S
LANCASTER      CLEAR     69  62  78 CALM      29.92R
ZANESVILLE     PTCLDY    70  60  70 CALM      29.92R
NEW PHILLY     PTCLDY    67  61  81 CALM      29.93R
$$


USA.gov is the U.S. government's official web portal to all federal, state and local government web resources and services.